Regional Weather Roundup
Issued by NWS

Home | Current Version | Previous Version | Graphics & Text | Print | Product List | Glossary On
Versions: 1 2 3 4 5 6 7 8 9 10 11 12 13 14 15 16 17 18 19 20 21 22 23 24 25 26 27 28 29 30 31 32 33 34 35 36 37 38 39 40 41 42 43 44 45 46 47 48 49 50
000
ASUS43 KMPX 251110
RWRMN
WEATHER ROUNDUP FOR MINNESOTA
NATIONAL WEATHER SERVICE TWIN CITIES/CHANHASSEN MN
500 AM CST SAT FEB 25 2017


NOTE: "FAIR" INDICATES FEW OR NO CLOUDS BELOW 12,000 FEET WITH NO
SIGNIFICANT WEATHER AND/OR OBSTRUCTIONS TO VISIBILITY. N/A MEANS
CURRENT SKY AND/OR WEATHER CONDITIONS ARE NOT AVAILABLE.

MNZ060>063-068>070-251200-
   Twin Cities Metro

CITY           SKY/WX    TMP DP  RH WIND       PRES   REMARKS
TWIN CITIES    PTCLDY    16   5  62 NW20      29.91R WCI  -1
ST PAUL        PTCLDY    16   7  67 NW20G28   29.91S WCI  -1
CRYSTAL        CLEAR     15   4  61 NW14      29.90R WCI   0
BLAINE         CLEAR     16   7  67 NW15G21   29.89S WCI   1
LAKEVILLE      PTCLDY    14   9  79 NW16      29.90R WCI  -2
EDEN PRAIRIE   CLEAR     16   5  62 NW17      29.90S WCI   0
SOUTH ST PAUL  PTCLDY    17   7  65 NW13      29.90S WCI   3
LAKE ELMO      FAIR      18   7  62 NW16G22   29.89R WCI   3
$$
MNZ001>005-007-008-013>017-022>024-027-028-251200-
   Northwest Minnesota

CITY           SKY/WX    TMP DP  RH WIND       PRES   REMARKS
BEMIDJI        CLEAR      5   1  82 W7        29.92F WCI  -7
HALLOCK        FLURRIES  16  12  86 S6        29.94F WCI   7
ROSEAU         PTCLDY     3   0  85 CALM      29.94F
WARROAD        PTCLDY     5   1  85 W6        29.94F WCI  -6
CROOKSTON      CLOUDY    18  14  86 SW5       29.98F WCI  11
FOSSTON        CLEAR      7   3  85 W3        29.96F
DETROIT LAKES  CLEAR     12  10  92 NW6       29.97S WCI   3
MOORHEAD       MOCLDY    16  12  86 CALM      30.01F
PARK RAPIDS    CLEAR      7  -1  70 NW8       29.92F WCI  -6
MAHNOMEN       FAIR      10   7  87 W3        29.97F
$$
MNZ006-009>011-018-025>026-251200-
   North Central Minnesota

CITY           SKY/WX    TMP DP  RH WIND       PRES   REMARKS
BAUDETTE       CLEAR      3  -2  79 W6        29.91F WCI  -8
FLAG ISLAND    CLEAR      3   0  85 NW7       29.91F WCI  -9
INTL FALLS     CLEAR      3  -2  79 NW8       29.87F WCI -10
WASKISH        CLEAR      7   1  78 NW5       29.91F WCI  -2
BIG FORK       CLEAR      3   0  85 NW3       29.88S
LONGVILLE      CLEAR      7   1  78 NW8       29.90F WCI  -6
GRAND RAPIDS   CLEAR      5   1  83 NW14      29.89S WCI -12
CRANE LAKE     PTCLDY     3   1  92 CALM      29.87S
ORR            CLEAR      3   0  85 NW6       29.82S WCI  -8
COOK           CLEAR      3   1  92 NW7       29.83F WCI  -9
WALKER         FAIR       6   1  77 NW6       29.92S WCI  -4
$$
MNZ012-019>021-037-251200-
   Northeast Minnesota

CITY           SKY/WX    TMP DP  RH WIND       PRES   REMARKS
DULUTH         FLURRIES   7   2  80 NW14      29.78S WCI -10
ELY            CLOUDY     7   1  78 NW7G16    29.78S WCI  -5
HIBBING        CLEAR      5   0  79 NW15      29.83S WCI -13
EVELETH        LGT SNOW   6   0  76 N8G18     29.82S WCI  -7
DULUTH HARBOR  PTCLDY    12   5  73 NW17      29.87S WCI  -5
TWO HARBORS    CLEAR     10   3  72 NW16G24   29.75S WCI  -7
SILVER BAY     CLEAR     10   3  72 NW13G21   29.71F WCI  -5
GRAND MARAIS     N/A     13   4  67 N22G47    29.67F WCI  -6
G MARAIS ARPRT LGT SNOW   7   0  72 NW14G24   29.64R WCI -10
$$
MNZ029>031-032-039>041-046>048-054>057-064-251200-
   West Central Minnesota

CITY           SKY/WX    TMP DP  RH WIND       PRES   REMARKS
FERGUS FALLS   CLEAR     12  10  92 NW5       30.05F WCI   4
WHEATON        CLEAR     16  10  79 W5        30.04F WCI   9
MORRIS         CLEAR     16  12  86 NW10      30.00S WCI   3
ALEXANDRIA     CLEAR     13   4  67 NW10      29.96S WCI   0
ELBOW LAKE     FAIR      14  12  90 W10       30.00S WCI   1
WADENA         CLEAR     10   3  72 NW8       29.94S WCI  -1
GLENWOOD       CLEAR     12   7  79 NW12      29.96S WCI  -2
APPLETON       CLEAR     18  12  79 W9        30.02S WCI   6
BENSON         CLEAR     16   9  73 N9        30.01S WCI   4
ORTONVILLE       N/A     16  10  79 CALM      30.02S
MADISON        CLEAR     19  16  86 NW8       30.03S WCI   9
WILLMAR        FAIR      18  10  73 NW14      29.99S WCI   4
$$
MNZ033>034-036-042>043-049>051-058-059-251200-
   Central Minnesota

CITY           SKY/WX    TMP DP  RH WIND       PRES   REMARKS
ST CLOUD       CLEAR     13   3  64 NW13      29.93S WCI  -2
SAUK CENTRE    FAIR      13   5  70 NW12      29.95S WCI  -1
PAYNESVILLE    CLEAR     15   6  70 NW12G18   29.96S WCI   1
AITKIN         CLEAR     10   1  67 NW8       29.88S WCI  -1
PINE RIVER     CLEAR      9   1  72 NW8       29.95S WCI  -4
BRAINERD       CLEAR      9   1  70 NW13      29.92S WCI  -7
STAPLES        CLEAR     10   3  72 NW12      29.93F WCI  -4
LONG PRAIRIE   FAIR      12   5  73 W9        29.94S WCI   0
LITTLE FALLS   CLEAR     12   3  67 NW8       29.94S WCI   1
LITCHFIELD     CLEAR     16   7  67 NW10      29.96R WCI   3
BUFFALO        CLEAR     15   5  66 NW8       29.95R WCI   3
MAPLE LAKE     CLEAR     15   6  68 NW12G17   29.94S WCI   2
HUTCHINSON     CLEAR     16   8  71 NW15G21   29.96S WCI   1
$$
MNZ037-044-045-052-053-251200-
   East Central Minnesota

CITY           SKY/WX    TMP DP  RH WIND       PRES   REMARKS
PRINCETON      CLEAR     14   7  73 NW10G21   29.91S WCI   1
MORA           CLEAR     12   5  73 NW9G18    29.91R WCI   0
CAMBRIDGE      CLEAR     16   3  57 NW10G18   29.89R WCI   3
RUSH CITY      CLEAR     12   3  67 NW12G20   29.88S WCI  -2
MOOSE LAKE     CLEAR     10   3  72 NW12G17   29.84S WCI  -4
HINCKLEY       FAIR      12   5  73 NW13G20   29.87R WCI  -3
CLOQUET        CLEAR      7   1  78 NW16G24   29.81S WCI -11
MCGREGOR       CLEAR     10   5  79 NW13G18   29.87F WCI  -5
$$
MNZ071>073-080-081-089-090-097-098-251200-
   Southwest Minnesota

CITY           SKY/WX    TMP DP  RH WIND       PRES   REMARKS
MONTEVIDEO     CLEAR     16  10  79 N10       30.03S WCI   3
CANBY          CLEAR     18  12  79 CALM      30.03F
MARSHALL       CLEAR     16  12  84 NW14      30.02S WCI   2
REDWOOD FALLS  CLEAR     17   7  64 NW13      30.00R WCI   4
OLIVIA         CLEAR     18  10  73 NW10G17   29.99R WCI   6
PIPESTONE      CLEAR     16  10  79 NW9       30.00S WCI   4
WINDOM         CLEAR     16   9  73 NW14      29.98S WCI   1
WORTHINGTON    CLEAR     14   9  80 NW14      29.99F WCI  -1
JACKSON        PTCLDY    14   7  73 NW16      29.97S WCI  -2
TRACY          CLEAR     18  13  81 NW15      30.00S WCI   3
SLAYTON        CLEAR     15  10  80 NW14      30.00R WCI   0
$$
MNZ065>067-074>077-082>085-091>093-251200-
   South Central Minnesota

CITY           SKY/WX    TMP DP  RH WIND       PRES   REMARKS
MANKATO          N/A     16   8  71 NW16G25   29.94S WCI   1
NEW ULM        CLEAR     16   7  67 NW15      29.97R WCI   1
ST JAMES       CLEAR     14   7  73 NW15      29.98S WCI  -1
FAIRMONT       CLEAR     13   7  77 NW17      29.96S WCI  -4
GLENCOE        CLEAR     17  10  75 NW16      29.94S WCI   2
FARIBAULT      PTCLDY    16   7  67 NW10G20   29.91R WCI   3
OWATONNA       PTCLDY    12   5  73 NW15      29.90R WCI  -4
WASECA         CLEAR     14   9  79 NW14      29.93R WCI  -1
ALBERT LEA     MOCLDY    14   9  79 NW10G16   29.89S WCI   1
$$
MNZ078>079-086>088-094>096-251200-
   Southeast Minnesota

CITY           SKY/WX    TMP DP  RH WIND       PRES   REMARKS
ROCHESTER      CLEAR     10   4  76 NW17      29.84R WCI  -8
RED WING       CLEAR     16   1  53 NW8       29.87S WCI   5
STANTON        CLEAR     15   5  66 NW9       29.88S WCI   3
WINONA         PTCLDY    18   9  68 NW16G26   29.85R WCI   3
AUSTIN         CLEAR     12   7  79 NW9       29.88R WCI   0
PRESTON        CLEAR     12   4  70 NW20      29.84R WCI  -7
$$
ABBREVIATIONS USED IN REMARKS
   TC - TEMPERATURES IN CELSIUS
  WCI - WIND CHILL INDEX
   HX - HEAT INDEX
  VSB - VISIBILITY
$$



USA.gov is the U.S. government's official web portal to all federal, state and local government web resources and services.